Regional Weather Roundup
Issued by NWS Sterling, VA

Home | Current Version | Previous Version | Graphics & Text | Print | Product List | Glossary Off
Versions: 1 2 3 4 5 6 7 8 9 10 11 12 13 14 15 16 17 18 19 20 21 22 23 24 25 26 27 28 29 30 31 32 33 34 35 36 37 38 39 40 41 42 43 44 45 46 47 48 49 50

163
ASUS41 KLWX 061310
RWRLWX

REGIONAL WEATHER ROUNDUP
NATIONAL WEATHER SERVICE BALTIMORE MD/WASHINGTON DC
800 AM EST SAT FEB 06 2016

Note: "FAIR" indicates few or no clouds below 12,000 feet
with no significant weather and/or obstructions to visibility.
 TC=TEMPERATURE CELSIUS

 * =Non NWS site. Station does not report precipitation (e.g. rain,
    snow, etc.), thunder, or fog.

DCZ001-MDZ009-015-VAZ040>042-051-053>054-061400-
WASHINGTON METRO

CITY           SKY/WX    TMP DP  RH WIND       PRES   REMARKS
WASHINGTON NAT MOCLDY    30  24  78 CALM      30.47R
DULLES         MOCLDY    24  20  84 CALM      30.45R
ANDREWS AFB    PTCLDY    25  22  86 S2        30.44R
FT BELVOIR     FAIR      23  21  92 CALM      30.47R
QUANTICO       FAIR      28  23  81 NW6       30.49R
COLLEGE PARK*  FAIR      27  25  93 CALM      30.46S
LEESBURG*      FAIR      27  25  93 SW5       30.46R
MANASSAS*      CLEAR     21  21 100 CALM      30.47R
GAITHERSBURG*  CLOUDY    21  18  86 CALM      30.48R

$$

MDZ006>007-011-014-061400-
BALTIMORE METRO

CITY           SKY/WX    TMP DP  RH WIND       PRES   REMARKS
BWI AIRPORT    MOCLDY    24  20  84 CALM      30.45R
MD SCIENCE CTR   N/A     31  22  69 MISG      30.46R
MARTIN STATE   PTCLDY    27  25  93 CALM      30.47R
ANNAPOLIS      PTCLDY    28  22  78 CALM      30.47R
FORT MEADE*    PTCLDY    23  21  93 CALM      30.48R

$$

MDZ012-015-019>023-061400-
MARYLAND EASTERN SHORE

CITY           SKY/WX    TMP DP  RH WIND       PRES   REMARKS
OCEAN CITY     PTCLDY    31  26  82 NW3       30.47R
SALISBURY      CLOUDY    28  26  92 CALM      30.47R
BAY BRIDGE AP*   N/A     30  27  86 CALM      30.47R
CAMBRIDGE*     MOCLDY    28  27  93 CALM      30.46S
EASTON*        CLOUDY    28  27  93 CALM      30.49R

$$

MDZ017>025-061400-
SOUTHERN MARYLAND

CITY           SKY/WX    TMP DP  RH WIND       PRES   REMARKS
PATUXENT RIVER CLOUDY    27  23  85 W3        30.47R
ST INIGOES     CLOUDY    28  26  92 CALM      30.47R
LEONARDTOWN*   CLOUDY    28  25  86 CALM      30.48R

$$

MDZ003>005-061400-
NORTH CENTRAL MARYLAND

CITY           SKY/WX    TMP DP  RH WIND       PRES   REMARKS
FREDERICK*     CLEAR     25  25 100 MISG      30.48R
HAGERSTOWN APT CLOUDY    28  17  63 S7        30.40R
WESTMINSTER*   CLOUDY    27  23  86 SW5       30.41R

$$

MDZ501>502-061400-
WESTERN MARYLAND

CITY           SKY/WX    TMP DP  RH WIND       PRES   REMARKS
OAKLAND*       CLOUDY    23  12  63 SW8       30.26S WCI  14
CUMBERLAND*    CLOUDY    23  23 100 CALM      30.44S

$$

VAZ025>031-061400-
SHENANDOAH VALLEY

CITY           SKY/WX    TMP DP  RH WIND       PRES   REMARKS
WINCHESTER*    FAIR      28  21  74 CALM      30.42R
FRONT ROYAL*   FAIR      27  21  80 CALM      30.41R
LURAY*         FAIR      23  21  93 CALM      30.41S
NEW MARKET*    FAIR      23  19  87 CALM      30.40S
STAUNTON*      FAIR      27  22  80 CALM      30.42R
WAYNESBORO*    FAIR      23  16  74 CALM      30.39R

$$

WVZ021-048>050-054>055-061400-
EASTERN WEST VIRGINIA PANHANDLE

CITY           SKY/WX    TMP DP  RH WIND       PRES   REMARKS
MARTINSBURG    FAIR      24  18  77 SW3       30.42R
PETERSBURG*    FAIR      22  19  91 CALM      30.41S

$$

VAZ036>039-050-061400-
CENTRAL FOOTHILLS

CITY           SKY/WX    TMP DP  RH WIND       PRES   REMARKS
CHARLOTTESVILL FAIR      26  18  71 CALM      30.43R
CULPEPER*      FAIR      21  19  94 CALM      30.47R
ORANGE*        FAIR      25  23  93 CALM      30.46S
GORDONSVILLE*  FAIR      22  21  96 CALM      30.44S
WARRENTON*     FAIR      23  23  99 CALM      30.45R

$$

VAZ055>057-061400-
NORTH AND CENTRAL PIEDMONT

CITY           SKY/WX    TMP DP  RH WIND       PRES   REMARKS
FREDERICKSBRG* FAIR      24  23  93 CALM      30.47R
STAFFORD*      FAIR      21  20  95 NW3       30.51R

$$

NCZ024-NYZ072-PAZ021-071-VAZ022-071-061400-
OTHER REGIONAL OBSERVATIONS

CITY           SKY/WX    TMP DP  RH WIND       PRES   REMARKS
NEW YORK CITY  PTCLDY    31  17  56 W5        30.44R
PHILADELPHIA   MOCLDY    30  23  75 SW3       30.45R
PITTSBURGH     MOCLDY    31  15  52 SW6       30.30R
ROANOKE        FAIR      26  17  68 NW3       30.44R
RICHMOND       CLOUDY    28  23  81 CALM      30.47R
RALEIGH        CLOUDY    29  23  78 CALM      30.45S

$$

ANZ530>537-061400-
MARINE OBSERVATIONS

STATION/POSITION TIME  TEMP    WIND        PRES
                       AIR SEA DIR/SP/G
                 (UTC) (F)     (DEG/KT/KT) (MB)
THOMAS PT LIGHT  1300   32 38  260/  4/  5 1032.5R
BALT KEY BRIDGE  1200   30     230/  3/  4 1031.1R
COVE POINT       1200   33     290/  1/  1 1031.9R
LEWISETTA        1200   31 42  280/  2/  3 1031.2R
SOLOMONS ISLAND  1200   31 41  310/  1/  3   N/A

$$





USA.gov is the U.S. government's official web portal to all federal, state and local government web resources and services.